Regional Weather Roundup
Issued by NWS Grand Forks, ND

Home | Current Version | Previous Version | Text Only | Print | Product List | Glossary On
Versions: 1 2 3 4 5 6 7 8 9 10 11 12 13 14 15 16 17 18 19 20 21 22 23 24 25 26 27 28 29 30 31 32 33 34 35 36 37 38 39 40 41 42 43 44 45 46 47 48 49 50
000
ASUS43 KFGF 180631
RWRFGF
PRAIRIE TO PINES  WEATHER ROUNDUP
NATIONAL WEATHER SERVICE EASTERN NORTH DAKOTA/GRAND FORKS ND
1200 AM CST THU JAN 18 2018

 **SATELLITE DATA USED TO AUGMENT SKY COVER AT AUTOMATED STATIONS**
 *****  WEATHER ACROSS EASTERN NORTH DAKOTA  *****

CITY           SKY/WX    TMP DP  RH WIND       PRES   REMARKS
GRAND FORKS    FAIR      34  25  69 SW16      29.78F WCI  24
6HR MIN TEMP:  29; 6HR MAX TEMP:  35;

GRAND FRKS AFB FAIR      34  22  63 W16G26    29.78F WCI  23
GRAND FRKS NWS   N/A     32 N/A N/A SW15        N/A  WCI  22
DEVILS LAKE    FAIR      30  23  75 W17       29.80F WCI  18
6HR MIN TEMP:  28; 6HR MAX TEMP:  30;

FARGO          FAIR      31  23  72 SW21      29.90F WCI  18
WAHPETON ARPT  FAIR      27  21  80 W12       29.95S WCI  16
$$

 ***** WEATHER ACROSS CENTRAL AND WESTERN NORTH DAKOTA  *****

CITY           SKY/WX    TMP DP  RH WIND       PRES   REMARKS
BISMARCK       FAIR      31  22  69 CALM      29.96F
6HR MIN TEMP:  28; 6HR MAX TEMP:  33;

MINOT          FAIR      32  20  61 SW17      29.84F WCI  21
6HR MIN TEMP:  32; 6HR MAX TEMP:  37;

JAMESTOWN      FAIR      33  23  66 W18       29.89F WCI  22
6HR MIN TEMP:  32; 6HR MAX TEMP:  34;

MINOT AFB      FAIR      28  20  69 W17       29.82F WCI  16
GARRISON         N/A     21  16  81 W12       29.90F WCI   9
WILLISTON      FAIR      22  17  81 SW5       29.91F WCI  16
6HR MIN TEMP:  19; 6HR MAX TEMP:  28;

DICKINSON      FAIR      24  17  74 W7        29.91F WCI  16
6HR MIN TEMP:  24; 6HR MAX TEMP:  30;

HETTINGER      FAIR      23  17  78 W6        29.98F WCI  16
6HR MIN TEMP:  19; 6HR MAX TEMP:  30;

$$

 *****  OTHER AIRPORT OBSERVATIONS IN OUR AREA  *****

CITY           SKY/WX    TMP DP  RH WIND       PRES   REMARKS
WALHALLA       FAIR      37  27  65 W14G21    29.70R
GRAFTON AIRPOR FAIR      34  25  69 W21       29.75S WCI  22
VALLEY CITY AR MIX PCPN  32  25  74 SW17      29.89F WCI  21
CANDO          MOCLDY    30  23  74 W21       29.79R WCI  17
CAVALIER APRT    N/A     37  25  60 W20G26    29.70S
GWINNER          N/A     28  23  80 SW14      29.95F WCI  17
SHEYENNE NWR     N/A     32  24  73 W12       29.95S WCI  23
ROLLA          FAIR      34  21  60 W16G23    29.74R WCI  23
 ***** THE ABOVE OBSERVATIONS ARE NON NWS ARE NOT QUALITY
       CONTROLLED AND MAY MIS-REPORT RAIN FOR SNOW...
$$

  *****  WEATHER ACROSS NORTHERN MINNESOTA  *****

CITY           SKY/WX    TMP DP  RH WIND       PRES   REMARKS
FLAG ISLAND    CLOUDY    28  25  86 SW14      29.63F WCI  17
WARROAD        LGT SNOW  32  28  86 SW15G24   29.67F WCI  22
ROSEAU         CLOUDY    34  28  80 SW17G24   29.68S WCI  23
HALLOCK        CLOUDY    34  27  75 SW14      29.70F WCI  24
THF RVR FALLS  NOT AVBL
BAUDETTE       FAIR      29  22  75 SW12      29.68F WCI  19
6HR MIN TEMP:  21; 6HR MAX TEMP:  29;

WASKISH        FAIR      30  25  80 SW18G25   29.73F WCI  18
CROOKSTON      FAIR      27  21  80 S12       29.81F WCI  16
STEPHEN NDAWN    N/A     30  23  74 SW13        N/A  WCI  20
GREENBUSH NDAW   N/A     30  25  80 SW18        N/A  WCI  18
$$
  *****  WEATHER ACROSS CENTRAL AND WEST MINNESOTA  *****

CITY           SKY/WX    TMP DP  RH WIND       PRES   REMARKS
FOSSTON        FAIR      25  19  80 S17       29.83F WCI  11
BEMIDJI        FAIR      31  21  67 SW10      29.80F WCI  22
6HR MIN TEMP:  27; 6HR MAX TEMP:  31;

PARK RAPIDS    FAIR      24  18  77 SW8       29.87S WCI  15
6HR MIN TEMP:  17; 6HR MAX TEMP:  26;

ELBOW LAKE     FAIR      15  14  95 W8        29.96F WCI   4
6HR MIN TEMP:  13; 6HR MAX TEMP:  26;

WADENA         FAIR      27  19  74 W12       29.91S WCI  16
DETROIT LAKES  FAIR      32  23  69 W12       29.90S WCI  23
MOORHEAD       FAIR      30  21  69 SW15      29.90F WCI  19
FERGUS FALLS   FAIR      18  14  86 S6        29.95S WCI   9
MORRIS MN      FAIR      28  21  74 W13       29.97F WCI  18
STAPLES        FAIR      28  19  69 W9        29.90F WCI  20
$$
  *****  WEATHER ELSEWHERE ACROSS MINNESOTA  *****

CITY           SKY/WX    TMP DP  RH WIND       PRES   REMARKS
DULUTH         FAIR      23  17  78 W15       29.82S WCI  10
6HR MIN TEMP: -24; 6HR MAX TEMP:  26;

INTRNTL FALLS  FAIR      21  18  88 SW7       29.72F WCI  12
6HR MIN TEMP:  19; 6HR MAX TEMP:  22;

ELY            FAIR      18  16  93 SW6       29.75F WCI   9
CLOQUET        FAIR      25  18  74 W9        29.85S WCI  15
WHEATON        FAIR      30  21  69 W14       29.99F WCI  20
BRAINERD       FAIR      23  17  78 SW9       29.91S WCI  13
6HR MIN TEMP:  20; 6HR MAX TEMP:  27;

HIBBING        FAIR      23  18  81 SW6       29.80F WCI  16
6HR MIN TEMP:  18; 6HR MAX TEMP:  25;

ALEXANDRIA     FAIR      26  20  77 SW9       29.96F WCI  17
6HR MIN TEMP:  24; 6HR MAX TEMP:  30;

SAINT CLOUD    FAIR      23  17  78 SW9       29.98S WCI  13
6HR MIN TEMP:  17; 6HR MAX TEMP:  26;

MINNEAPOLIS    FAIR      24  16  71 SW9       30.03F WCI  14
6HR MIN TEMP:  24; 6HR MAX TEMP:  27;

$$

  *****  WEATHER ACROSS SOUTH DAKOTA  *****

CITY           SKY/WX    TMP DP  RH WIND       PRES   REMARKS
SIOUX FALLS    FAIR      21  16  81 SW6       30.11F WCI  13
6HR MIN TEMP:  17; 6HR MAX TEMP:  30;

BROOKINGS      FAIR      20  16  84 SW7       30.07F WCI  11
WATERTOWN      FAIR      23  19  85 SW10      30.03F WCI  12
6HR MIN TEMP:  10; 6HR MAX TEMP:  24;

HURON          FAIR      20  17  88 CALM      30.08F
6HR MIN TEMP:  20; 6HR MAX TEMP:  35;

SISSETON         N/A     34  23  64 W18       29.96F WCI  23
ABERDEEN       FAIR      19  17  92 SW8       30.03F WCI   9
6HR MIN TEMP:  17; 6HR MAX TEMP:  28;

MITCHELL       FAIR      23  19  85 SW5       30.12F WCI  17
PIERRE         FAIR      31  25  78 SW13      30.06F WCI  21
6HR MIN TEMP:  24; 6HR MAX TEMP:  36;

MOBRIDGE       FAIR      25  18  74 SE6       29.98F WCI  18
RAPID CITY     FAIR      31  19  61 CALM      30.04F
6HR MIN TEMP:  29; 6HR MAX TEMP:  45;

$$

  *****  SOME WEATHER IN NEARBY STATES *****

CITY           SKY/WX    TMP DP  RH WIND       PRES   REMARKS
GLASGOW MT     FAIR      14  13  95 CALM      29.89F
6HR MIN TEMP:  14; 6HR MAX TEMP:  27;

GREAT FALLS MT FAIR      41  24  51 SW17      29.92F
6HR MIN TEMP:  39; 6HR MAX TEMP:  45;

CHEYENNE WY    FAIR      31  11  43 SW13      30.20R WCI  21
6HR MIN TEMP:  23; 6HR MAX TEMP:  39;

SCOTTSBLUFF NE FAIR      15  12  88 N6        30.18R WCI   6
6HR MIN TEMP:  15; 6HR MAX TEMP:  36;

OMAHA NE       FAIR      15   9  76 SE9       30.28F WCI   3
6HR MIN TEMP:  14; 6HR MAX TEMP:  24;

DES MOINES IA  FAIR      21  11  65 SW13      30.25F WCI   9
6HR MIN TEMP:  20; 6HR MAX TEMP:  22;

DAVENPORT IA   FAIR      19   9  65 SW15      30.27F WCI   5
6HR MIN TEMP:  19; 6HR MAX TEMP:  20;

CHICAGO IL     FAIR      18   9  68 W21G29    30.19F WCI   1
6HR MIN TEMP:  17; 6HR MAX TEMP:  19;

EAU CLAIRE WI  FAIR      23  15  71 SW9       30.00S WCI  13
6HR MIN TEMP:  22; 6HR MAX TEMP:  24; 6HR PCP: TRACE;

LA CROSSE WI   FAIR      21  12  68 SW7       30.10F WCI  12
6HR MIN TEMP:  19; 6HR MAX TEMP:  23;

$$

  *****  SOME NATIONAL WEATHER *****

CITY           SKY/WX    TMP DP  RH WIND       PRES   REMARKS
LA GUARDIA NY  FAIR      23  11  60 NW13      30.14F WCI  11
6HR MIN TEMP:  22; 6HR MAX TEMP:  28;

RALEIGH NC     FLURRIES  21  16  81 VRB7      30.24S WCI  12
6HR MIN TEMP:  23; 6HR MAX TEMP:  26; 6HR PCP:  0.01;

ATLANTA GA     FAIR      16   8  71 NW12      30.40R WCI   3
6HR MIN TEMP:  16; 6HR MAX TEMP:  22;

NEW ORLEANS LA FAIR      30  16  56 NE6       30.62R WCI  24
6HR MIN TEMP:  30; 6HR MAX TEMP:  34;

OKLAHOMA CITY  FAIR      19   6  57 S12       30.48F WCI   7
6HR MIN TEMP:  16; 6HR MAX TEMP:  26;

ALBUQUERQUE NM FAIR      28  13  53 CALM      30.33F
6HR MIN TEMP:  26; 6HR MAX TEMP:  40;

SALT LAKE CITY MOCLDY    38  30  73 SE7       30.32F
6HR MIN TEMP:  37; 6HR MAX TEMP:  47;

LOS ANGELES CA FAIR


USA.gov is the U.S. government's official web portal to all federal, state and local government web resources and services.